Location: Newark
(42.7133°N, 87.7910°W)
Time: 05:51:52
(UTC+00:00)

Vanguard 1 - Pass Details

Date: 26 September 2019
Orbit: 653 x 3830 km, 34.2° (Epoch: 17 October)

Event Time Altitude Azimuth Distance (km) Brightness Sun altitude
Rises 08:41:05 0° 259° (WSW) 7,700 - -32.5°
Reaches altitude 10° 08:46:07 10° 257° (WSW) 6,835 - -31.7°
Exits shadow 08:58:21 40° 246° (WSW) 4,850 12.9 -29.8°
Maximum altitude 09:09:26 67° 182° (S) 3,718 12.7 -28.0°
Drops below altitude 10° 09:26:36 10° 104° (ESE) 5,263 14.4 -25.2°
Sets 09:29:53 0° 102° (ESE) 5,932 14.9 -24.6°
